Location: ????
(32.1228°N, 34.8377°E)
Time: 04:09:08
(UTC+00:00)

SAR-Lupe-4 - Pass Details

Date: 21 September 2020
Orbit: 482 x 484 km, 98.2° (Epoch: 09 October)

Event Time Altitude Azimuth Distance (km) Brightness Sun altitude
Rises 02:37:00 0° 172° (S) 2,532 7.2 -11.7°
Reaches altitude 10° 02:39:04 10° 175° (S) 1,656 6.2 -11.2°
Maximum altitude 02:42:36 68° 258° (WSW) 525 3.5 -10.5°
Drops below altitude 10° 02:46:10 10° 342° (NNW) 1,667 6.2 -9.7°
Sets 02:48:15 0° 345° (NNW) 2,550 7.1 -9.3°
